This demonstration page uses our WeatherBlox Daily Observations layout. Learn more.

Left ArrowRight Arrow

34.16533, -84.80231

Hourly Observations for October 31, 2015

Temp ( °F °C ) Dew Point ( °F °C ) Humidity (%) Winds ( mph kmh ) Pressure ( in mb ) Visibility ( mi km ) Precip ( " mm )
12:53 am 00:53 Clear 43 6.1 42 5.6 97 97 Calm 30.05 1018 10 16 0.00 0.00
1:53 am 01:53 Clear 43 6.1 42 5.6 97 97 Calm 30.06 1018 10 16 0.00 0.00
2:53 am 02:53 Clear 45 7.2 44 6.7 97 97 VRB 3 6 30.09 1019 10 16 0.00 0.00
3:53 am 03:53 Clear 46 7.8 45 7.2 96 96 Calm 30.07 1018 10 16 0.00 0.00
4:53 am 04:53 Clear 46 7.8 45 7.2 96 96 Calm 30.06 1018 10 16 0.00 0.00
5:53 am 05:53 Clear 49 9.4 46 7.8 90 90 E 3 6 30.07 1018 10 16 0.00 0.00
6:53 am 06:53 Clear 51 10.6 46 7.8 83 83 E 3 6 30.07 1018 10 16 0.00 0.00
7:53 am 07:53 Mostly Clear 52 11.1 47 8.3 83 83 E 6 9 30.07 1018 10 16 0.00 0.00
8:53 am 08:53 Mostly Sunny 54 12.2 48 8.9 80 80 E 3 6 30.09 1019 10 16 0.00 0.00
9:53 am 09:53 Cloudy 55 12.8 50 10 83 83 E 6 9 30.09 1019 10 16 0.00 0.00
10:53 am 10:53 Cloudy 56 13.3 50 10 81 81 E 6 9 30.10 1019 10 16 0.00 0.00
11:53 am 11:53 Mostly Cloudy 60 15.6 50 10 70 70 VRB 6 9 30.11 1020 10 16 0.00 0.00
12:53 pm 12:53 Mostly Cloudy 62 16.7 49 9.4 62 62 E 7 11 30.10 1019 10 16 0.00 0.00
1:53 pm 13:53 Partly Cloudy 62 16.7 49 9.4 62 62 ESE 7 11 30.07 1018 10 16 0.00 0.00
2:53 pm 14:53 Mostly Sunny 61 16.1 50 10 67 67 VRB 6 9 30.06 1018 10 16 0.00 0.00
3:53 pm 15:53 Cloudy 60 15.6 51 10.6 72 72 VRB 6 9 30.03 1017 10 16 0.00 0.00
4:53 pm 16:53 Sunny 61 16.1 52 11.1 72 72 E 7 11 30.01 1016 10 16 0.00 0.00
5:12 pm 17:12 Mostly Cloudy 61 16.1 52 11.1 72 72 VRB 6 9 30.03 1017 10 16 0.00 0.00
5:38 pm 17:38 Partly Cloudy 61 16.1 52 11.1 72 72 E 6 9 30.03 1017 10 16 0.00 0.00
5:53 pm 17:53 Sunny 61 16.1 53 11.7 75 75 VRB 5 7 30.00 1016 10 16 0.00 0.00
6:53 pm 18:53 Mostly Clear 60 15.6 53 11.7 78 78 E 7 11 29.99 1016 10 16 0.00 0.00
7:53 pm 19:53 Mostly Clear 59 15 52 11.1 78 78 ESE 9 15 29.99 1016 10 16 0.00 0.00
8:53 pm 20:53 Cloudy 59 15 53 11.7 81 81 ESE 9 15 29.99 1016 10 16 0.00 0.03
9:53 pm 21:53 Mostly Cloudy with Light Rain 58 14.4 54 12.2 87 87 VRB 5 7 30.00 1016 10 16 0.01 0.25
10:53 pm 22:53 Cloudy with Heavy Rain 57 13.9 54 12.2 90 90 E 5 7 30.00 1016 5 8 0.04 1.02

Powered by AerisWeather